Time,TemperatureF,DewpointF,PressureIn,WindDirection,WindDirectionDegrees,WindSpeedMPH,WindSpeedGustMPH,Humidity,HourlyPrecipIn,Conditions,Clouds,dailyrainin,SoftwareType,DateUTC
2013-08-16 00:01:00,62.3,60.6,29.85,West,277,0.0,1.0,94,0.00,,,0.00,Wunderground v.1.15,2013-08-16 07:01:00,
2013-08-16 00:06:00,62.3,60.6,29.85,West,278,0.0,1.0,94,0.00,,,0.00,Wunderground v.1.15,2013-08-16 07:06:00,
2013-08-16 00:12:00,62.2,60.5,29.85,West,278,0.0,1.0,94,0.00,,,0.00,Wunderground v.1.15,2013-08-16 07:12:00,
2013-08-16 00:17:00,62.3,60.6,29.85,West,277,0.0,1.0,94,0.00,,,0.00,Wunderground v.1.15,2013-08-16 07:17:00,
2013-08-16 00:22:00,62.2,60.5,29.85,West,278,0.0,1.0,94,0.00,,,0.00,Wunderground v.1.15,2013-08-16 07:22:00,
2013-08-16 00:27:00,62.2,60.8,29.85,West,277,0.0,1.0,95,0.00,,,0.00,Wunderground v.1.15,2013-08-16 07:27:00,
2013-08-16 00:32:00,62.3,60.8,29.85,West,277,0.0,1.0,95,0.00,,,0.00,Wunderground v.1.15,2013-08-16 07:32:00,
2013-08-16 00:37:00,62.2,60.8,29.85,West,278,0.0,1.0,95,0.00,,,0.00,Wunderground v.1.15,2013-08-16 07:37:00,
2013-08-16 00:42:00,62.2,60.8,29.85,West,278,0.0,1.0,95,0.00,,,0.00,Wunderground v.1.15,2013-08-16 07:42:00,
2013-08-16 00:48:00,62.3,60.8,29.85,West,278,0.0,1.0,95,0.00,,,0.00,Wunderground v.1.15,2013-08-16 07:48:00,
2013-08-16 00:54:00,62.3,60.8,29.85,West,278,0.0,1.0,95,0.00,,,0.00,Wunderground v.1.15,2013-08-16 07:54:00,
2013-08-16 00:59:00,62.3,60.8,29.85,West,278,0.0,1.0,95,0.00,,,0.00,Wunderground v.1.15,2013-08-16 07:59:00,
2013-08-16 01:04:00,62.3,60.8,29.84,West,278,0.0,1.0,95,0.00,,,0.00,Wunderground v.1.15,2013-08-16 08:04:00,
2013-08-16 01:09:00,62.2,60.8,29.84,West,277,0.0,1.0,95,0.00,,,0.00,Wunderground v.1.15,2013-08-16 08:09:00,
2013-08-16 01:14:00,62.2,60.8,29.84,West,278,0.0,1.0,95,0.00,,,0.00,Wunderground v.1.15,2013-08-16 08:14:00,
2013-08-16 01:19:00,62.1,60.7,29.84,West,278,0.0,1.0,95,0.00,,,0.00,Wunderground v.1.15,2013-08-16 08:19:00,
2013-08-16 01:24:00,62.1,60.7,29.84,West,277,0.0,1.0,95,0.00,,,0.00,Wunderground v.1.15,2013-08-16 08:24:00,
2013-08-16 01:29:00,62.2,60.8,29.84,West,278,0.0,1.0,95,0.00,,,0.00,Wunderground v.1.15,2013-08-16 08:29:00,
2013-08-16 01:34:00,62.1,60.7,29.83,West,278,0.0,1.0,95,0.00,,,0.00,Wunderground v.1.15,2013-08-16 08:34:00,
2013-08-16 01:39:00,62.1,60.7,29.83,West,278,0.0,1.0,95,0.00,,,0.00,Wunderground v.1.15,2013-08-16 08:39:00,
2013-08-16 01:45:00,62.0,60.6,29.83,West,278,0.0,1.0,95,0.00,,,0.00,Wunderground v.1.15,2013-08-16 08:45:00,
2013-08-16 01:50:00,62.0,60.6,29.84,West,278,0.0,1.0,95,0.00,,,0.00,Wunderground v.1.15,2013-08-16 08:50:00,
2013-08-16 01:56:00,62.0,60.6,29.83,West,278,0.0,1.0,95,0.00,,,0.00,Wunderground v.1.15,2013-08-16 08:56:00,
2013-08-16 02:01:00,61.9,60.5,29.84,West,277,0.0,1.0,95,0.00,,,0.00,Wunderground v.1.15,2013-08-16 09:01:00,
2013-08-16 02:06:00,61.9,60.5,29.83,West,278,0.0,1.0,95,0.00,,,0.00,Wunderground v.1.15,2013-08-16 09:06:00,
2013-08-16 02:11:00,61.9,60.5,29.83,West,278,0.0,1.0,95,0.00,,,0.00,Wunderground v.1.15,2013-08-16 09:11:00,
2013-08-16 02:16:00,61.8,60.4,29.84,West,277,0.0,1.0,95,0.00,,,0.00,Wunderground v.1.15,2013-08-16 09:16:00,
2013-08-16 02:21:00,61.9,60.5,29.84,West,278,0.0,1.0,95,0.00,,,0.00,Wunderground v.1.15,2013-08-16 09:21:00,
2013-08-16 02:27:00,61.8,60.4,29.84,West,278,0.0,1.0,95,0.00,,,0.00,Wunderground v.1.15,2013-08-16 09:27:00,
2013-08-16 02:32:00,61.8,60.4,29.84,West,277,0.0,1.0,95,0.00,,,0.00,Wunderground v.1.15,2013-08-16 09:32:00,
2013-08-16 02:37:00,61.8,60.4,29.84,West,278,0.0,1.0,95,0.00,,,0.00,Wunderground v.1.15,2013-08-16 09:37:00,
2013-08-16 02:42:00,61.8,60.4,29.84,West,277,0.0,1.0,95,0.00,,,0.00,Wunderground v.1.15,2013-08-16 09:42:00,
2013-08-16 02:47:00,61.7,60.3,29.84,West,278,0.0,1.0,95,0.00,,,0.00,Wunderground v.1.15,2013-08-16 09:47:00,
2013-08-16 02:52:00,61.8,60.4,29.84,West,278,0.0,1.0,95,0.00,,,0.00,Wunderground v.1.15,2013-08-16 09:52:00,
2013-08-16 02:57:00,61.8,60.4,29.84,West,277,0.0,1.0,95,0.00,,,0.00,Wunderground v.1.15,2013-08-16 09:57:00,
2013-08-16 03:02:00,61.8,60.4,29.84,West,278,0.0,1.0,95,0.00,,,0.00,Wunderground v.1.15,2013-08-16 10:02:00,
2013-08-16 03:09:00,61.8,60.4,29.84,West,277,0.0,1.0,95,0.00,,,0.00,Wunderground v.1.15,2013-08-16 10:09:00,
2013-08-16 03:14:00,61.8,60.4,29.84,West,278,0.0,1.0,95,0.00,,,0.00,Wunderground v.1.15,2013-08-16 10:14:00,
2013-08-16 03:19:00,61.9,60.5,29.84,West,277,0.0,1.0,95,0.00,,,0.00,Wunderground v.1.15,2013-08-16 10:19:00,
2013-08-16 03:24:00,61.8,60.4,29.84,West,277,0.0,1.0,95,0.00,,,0.00,Wunderground v.1.15,2013-08-16 10:24:00,
2013-08-16 03:29:00,61.8,60.4,29.84,West,278,0.0,1.0,95,0.00,,,0.00,Wunderground v.1.15,2013-08-16 10:29:00,
2013-08-16 03:34:00,61.7,60.3,29.84,West,278,0.0,1.0,95,0.00,,,0.00,Wunderground v.1.15,2013-08-16 10:34:00,
2013-08-16 03:39:00,61.7,60.3,29.84,West,278,0.0,1.0,95,0.00,,,0.00,Wunderground v.1.15,2013-08-16 10:39:00,
2013-08-16 03:44:00,61.7,60.3,29.83,West,278,0.0,1.0,95,0.00,,,0.00,Wunderground v.1.15,2013-08-16 10:44:00,
2013-08-16 03:49:00,61.5,60.1,29.83,West,277,0.0,1.0,95,0.00,,,0.00,Wunderground v.1.15,2013-08-16 10:49:00,
2013-08-16 03:54:00,61.4,60.0,29.83,West,278,0.0,1.0,95,0.00,,,0.00,Wunderground v.1.15,2013-08-16 10:54:00,
2013-08-16 04:00:00,61.3,59.9,29.83,West,278,0.0,1.0,95,0.00,,,0.00,Wunderground v.1.15,2013-08-16 11:00:00,
2013-08-16 04:05:00,61.2,59.8,29.83,West,277,0.0,1.0,95,0.00,,,0.00,Wunderground v.1.15,2013-08-16 11:05:00,
2013-08-16 04:10:00,61.1,59.7,29.83,West,277,0.0,1.0,95,0.00,,,0.00,Wunderground v.1.15,2013-08-16 11:10:00,
2013-08-16 04:15:00,61.0,59.6,29.83,West,277,0.0,1.0,95,0.00,,,0.00,Wunderground v.1.15,2013-08-16 11:15:00,
2013-08-16 04:21:00,61.0,59.6,29.82,West,278,0.0,1.0,95,0.00,,,0.00,Wunderground v.1.15,2013-08-16 11:21:00,
2013-08-16 04:26:00,60.9,59.5,29.82,West,278,0.0,1.0,95,0.00,,,0.00,Wunderground v.1.15,2013-08-16 11:26:00,
2013-08-16 04:31:00,60.8,59.4,29.82,West,278,0.0,1.0,95,0.00,,,0.00,Wunderground v.1.15,2013-08-16 11:31:00,
2013-08-16 04:36:00,60.7,59.3,29.82,West,278,0.0,1.0,95,0.00,,,0.00,Wunderground v.1.15,2013-08-16 11:36:00,
2013-08-16 04:42:00,60.5,59.1,29.82,West,278,0.0,1.0,95,0.00,,,0.00,Wunderground v.1.15,2013-08-16 11:42:00,
2013-08-16 04:47:00,60.4,59.0,29.82,West,278,0.0,1.0,95,0.00,,,0.00,Wunderground v.1.15,2013-08-16 11:47:00,
2013-08-16 04:52:00,60.2,58.8,29.82,West,278,0.0,1.0,95,0.00,,,0.00,Wunderground v.1.15,2013-08-16 11:52:00,
2013-08-16 04:57:00,60.1,58.7,29.82,West,277,0.0,1.0,95,0.00,,,0.00,Wunderground v.1.15,2013-08-16 11:57:00,
2013-08-16 05:02:00,59.9,58.5,29.82,West,278,0.0,1.0,95,0.00,,,0.00,Wunderground v.1.15,2013-08-16 12:02:00,
2013-08-16 05:07:00,59.8,58.4,29.82,West,278,0.0,1.0,95,0.00,,,0.00,Wunderground v.1.15,2013-08-16 12:07:00,
2013-08-16 05:12:00,59.6,58.2,29.82,West,277,0.0,1.0,95,0.00,,,0.00,Wunderground v.1.15,2013-08-16 12:12:00,
2013-08-16 05:17:00,59.4,58.0,29.82,West,278,0.0,1.0,95,0.00,,,0.00,Wunderground v.1.15,2013-08-16 12:17:00,
2013-08-16 05:22:00,59.3,57.9,29.82,West,277,0.0,1.0,95,0.00,,,0.00,Wunderground v.1.15,2013-08-16 12:22:00,
2013-08-16 05:27:00,59.2,57.8,29.83,West,277,0.0,1.0,95,0.00,,,0.00,Wunderground v.1.15,2013-08-16 12:27:00,
2013-08-16 05:32:00,59.1,57.7,29.83,West,278,0.0,1.0,95,0.00,,,0.00,Wunderground v.1.15,2013-08-16 12:32:00,
2013-08-16 05:37:00,58.9,57.5,29.83,West,278,0.0,1.0,95,0.00,,,0.00,Wunderground v.1.15,2013-08-16 12:37:00,
2013-08-16 05:42:00,58.9,57.5,29.83,West,278,0.0,1.0,95,0.00,,,0.00,Wunderground v.1.15,2013-08-16 12:42:00,
2013-08-16 05:48:00,58.8,57.4,29.83,West,278,0.0,1.0,95,0.00,,,0.00,Wunderground v.1.15,2013-08-16 12:48:00,
2013-08-16 05:53:00,58.7,57.3,29.83,West,277,0.0,1.0,95,0.00,,,0.00,Wunderground v.1.15,2013-08-16 12:53:00,
2013-08-16 05:58:00,58.7,57.6,29.83,West,278,0.0,1.0,96,0.00,,,0.00,Wunderground v.1.15,2013-08-16 12:58:00,
2013-08-16 06:03:00,58.7,57.6,29.83,West,277,0.0,1.0,96,0.00,,,0.00,Wunderground v.1.15,2013-08-16 13:03:00,
2013-08-16 06:08:00,58.8,57.7,29.83,West,278,0.0,1.0,96,0.00,,,0.00,Wunderground v.1.15,2013-08-16 13:08:00,
2013-08-16 06:13:00,58.9,58.1,29.83,West,278,0.0,1.0,97,0.00,,,0.00,Wunderground v.1.15,2013-08-16 13:13:00,
2013-08-16 06:18:00,59.1,58.2,29.83,West,278,0.0,1.0,97,0.00,,,0.00,Wunderground v.1.15,2013-08-16 13:18:00,
2013-08-16 06:23:00,59.2,58.3,29.83,West,278,0.0,1.0,97,0.00,,,0.00,Wunderground v.1.15,2013-08-16 13:23:00,
2013-08-16 06:28:00,59.4,58.5,29.83,West,277,0.0,1.0,97,0.00,,,0.00,Wunderground v.1.15,2013-08-16 13:28:00,
2013-08-16 06:33:00,59.6,58.7,29.84,West,278,0.0,1.0,97,0.00,,,0.00,Wunderground v.1.15,2013-08-16 13:33:00,
2013-08-16 06:38:00,59.7,58.8,29.84,West,278,0.0,1.0,97,0.00,,,0.00,Wunderground v.1.15,2013-08-16 13:38:00,
2013-08-16 06:43:00,59.8,58.9,29.84,West,277,0.0,1.0,97,0.00,,,0.00,Wunderground v.1.15,2013-08-16 13:43:00,
2013-08-16 06:48:00,59.8,58.9,29.84,West,278,0.0,1.0,97,0.00,,,0.00,Wunderground v.1.15,2013-08-16 13:48:00,
2013-08-16 06:53:00,60.0,59.1,29.84,West,278,0.0,1.0,97,0.00,,,0.00,Wunderground v.1.15,2013-08-16 13:53:00,
2013-08-16 06:58:00,60.1,59.2,29.84,West,277,0.0,1.0,97,0.00,,,0.00,Wunderground v.1.15,2013-08-16 13:58:00,
2013-08-16 07:03:00,60.2,59.3,29.84,West,278,0.0,1.0,97,0.00,,,0.00,Wunderground v.1.15,2013-08-16 14:03:00,
2013-08-16 07:09:00,60.3,59.4,29.84,West,278,0.0,1.0,97,0.00,,,0.00,Wunderground v.1.15,2013-08-16 14:09:00,
2013-08-16 07:14:00,60.3,59.4,29.85,West,278,0.0,1.0,97,0.00,,,0.00,Wunderground v.1.15,2013-08-16 14:14:00,
2013-08-16 07:19:00,60.4,59.5,29.85,West,278,0.0,1.0,97,0.00,,,0.00,Wunderground v.1.15,2013-08-16 14:19:00,
2013-08-16 07:25:00,60.6,59.7,29.85,West,277,0.0,1.0,97,0.00,,,0.00,Wunderground v.1.15,2013-08-16 14:25:00,
2013-08-16 07:30:00,60.7,59.8,29.85,West,278,0.0,1.0,97,0.00,,,0.00,Wunderground v.1.15,2013-08-16 14:30:00,
2013-08-16 07:35:00,60.7,59.8,29.85,West,278,0.0,1.0,97,0.00,,,0.00,Wunderground v.1.15,2013-08-16 14:35:00,
2013-08-16 07:40:00,60.9,60.0,29.85,West,277,0.0,1.0,97,0.00,,,0.00,Wunderground v.1.15,2013-08-16 14:40:00,
2013-08-16 07:45:00,60.9,60.0,29.85,West,278,0.0,1.0,97,0.00,,,0.00,Wunderground v.1.15,2013-08-16 14:45:00,
2013-08-16 07:50:00,60.9,60.0,29.86,West,278,0.0,1.0,97,0.00,,,0.00,Wunderground v.1.15,2013-08-16 14:50:00,
2013-08-16 07:55:00,60.8,59.9,29.86,West,277,0.0,1.0,97,0.00,,,0.00,Wunderground v.1.15,2013-08-16 14:55:00,
2013-08-16 08:00:00,60.8,59.9,29.86,West,278,0.0,1.0,97,0.00,,,0.00,Wunderground v.1.15,2013-08-16 15:00:00,
2013-08-16 08:05:00,60.9,60.0,29.86,West,277,0.0,1.0,97,0.00,,,0.00,Wunderground v.1.15,2013-08-16 15:05:00,
2013-08-16 08:10:00,61.2,60.6,29.86,West,278,0.0,1.0,98,0.00,,,0.00,Wunderground v.1.15,2013-08-16 15:10:00,
2013-08-16 08:15:00,61.4,60.8,29.86,West,278,0.0,1.0,98,0.00,,,0.00,Wunderground v.1.15,2013-08-16 15:15:00,
2013-08-16 08:20:00,61.6,60.7,29.86,West,277,0.0,1.0,97,0.00,,,0.00,Wunderground v.1.15,2013-08-16 15:20:00,
2013-08-16 08:25:00,61.8,60.9,29.87,West,278,0.0,1.0,97,0.00,,,0.00,Wunderground v.1.15,2013-08-16 15:25:00,
2013-08-16 08:30:00,61.9,61.0,29.87,West,278,0.0,1.0,97,0.00,,,0.00,Wunderground v.1.15,2013-08-16 15:30:00,
2013-08-16 08:36:00,62.0,60.8,29.87,West,277,0.0,1.0,96,0.00,,,0.00,Wunderground v.1.15,2013-08-16 15:36:00,
2013-08-16 08:41:00,62.3,61.1,29.87,West,278,0.0,2.0,96,0.00,,,0.00,Wunderground v.1.15,2013-08-16 15:41:00,
2013-08-16 08:46:00,62.5,61.0,29.86,West,277,0.0,2.0,95,0.00,,,0.00,Wunderground v.1.15,2013-08-16 15:46:00,
2013-08-16 08:51:00,63.1,61.9,29.86,West,278,0.0,1.0,96,0.00,,,0.00,Wunderground v.1.15,2013-08-16 15:51:00,
2013-08-16 08:56:00,63.8,62.0,29.86,West,278,0.0,1.0,94,0.00,,,0.00,Wunderground v.1.15,2013-08-16 15:56:00,
2013-08-16 09:01:00,64.3,61.9,29.86,West,278,0.0,1.0,92,0.00,,,0.00,Wunderground v.1.15,2013-08-16 16:01:00,
2013-08-16 09:06:00,64.7,62.0,29.86,West,278,0.0,3.0,91,0.00,,,0.00,Wunderground v.1.15,2013-08-16 16:06:00,
2013-08-16 09:11:00,65.2,62.5,29.85,West,277,0.0,1.0,91,0.00,,,0.00,Wunderground v.1.15,2013-08-16 16:11:00,
2013-08-16 09:16:00,65.6,62.3,29.85,West,278,0.0,1.0,89,0.00,,,0.00,Wunderground v.1.15,2013-08-16 16:16:00,
2013-08-16 09:21:00,66.2,62.5,29.85,West,277,1.0,2.0,88,0.00,,,0.00,Wunderground v.1.15,2013-08-16 16:21:00,
2013-08-16 09:26:00,66.8,63.1,29.85,West,277,0.0,2.0,88,0.00,,,0.00,Wunderground v.1.15,2013-08-16 16:26:00,
2013-08-16 09:31:00,67.6,63.6,29.85,West,277,0.0,1.0,87,0.00,,,0.00,Wunderground v.1.15,2013-08-16 16:31:00,
2013-08-16 09:37:00,68.5,63.8,29.85,West,277,0.0,1.0,85,0.00,,,0.00,Wunderground v.1.15,2013-08-16 16:37:00,
2013-08-16 09:42:00,69.3,63.9,29.85,West,277,0.0,1.0,83,0.00,,,0.00,Wunderground v.1.15,2013-08-16 16:42:00,
2013-08-16 09:47:00,70.3,64.2,29.85,West,271,0.0,1.0,81,0.00,,,0.00,Wunderground v.1.15,2013-08-16 16:47:00,
2013-08-16 09:52:00,71.0,64.5,29.85,West,271,0.0,1.0,80,0.00,,,0.00,Wunderground v.1.15,2013-08-16 16:52:00,
2013-08-16 09:58:00,72.2,65.0,29.85,West,271,0.0,1.0,78,0.00,,,0.00,Wunderground v.1.15,2013-08-16 16:58:00,
2013-08-16 10:04:00,73.0,65.4,29.84,West,270,0.0,1.0,77,0.00,,,0.00,Wunderground v.1.15,2013-08-16 17:04:00,
2013-08-16 10:09:00,74.1,65.7,29.84,West,271,0.0,1.0,75,0.00,,,0.00,Wunderground v.1.15,2013-08-16 17:09:00,
2013-08-16 10:14:00,74.7,65.5,29.84,WSW,245,1.0,3.0,73,0.00,,,0.00,Wunderground v.1.15,2013-08-16 17:14:00,
2013-08-16 10:19:00,75.5,65.8,29.84,West,260,1.0,3.0,72,0.00,,,0.00,Wunderground v.1.15,2013-08-16 17:19:00,
2013-08-16 10:24:00,76.4,65.9,29.84,West,259,1.0,1.0,70,0.00,,,0.00,Wunderground v.1.15,2013-08-16 17:24:00,
2013-08-16 10:29:00,77.5,66.9,29.84,West,276,1.0,3.0,70,0.00,,,0.00,Wunderground v.1.15,2013-08-16 17:29:00,
2013-08-16 10:34:00,77.9,65.2,29.85,West,262,1.0,3.0,65,0.00,,,0.00,Wunderground v.1.15,2013-08-16 17:34:00,
2013-08-16 10:41:00,78.4,65.7,29.85,West,275,1.0,3.0,65,0.00,,,0.00,Wunderground v.1.15,2013-08-16 17:41:00,
2013-08-16 10:46:00,78.5,65.3,29.84,WSW,253,3.0,8.0,64,0.00,,,0.00,Wunderground v.1.15,2013-08-16 17:46:00,
2013-08-16 10:51:00,78.6,65.8,29.84,West,275,4.0,4.0,65,0.00,,,0.00,Wunderground v.1.15,2013-08-16 17:51:00,
2013-08-16 10:56:00,79.2,66.0,29.85,NW,323,3.0,5.0,64,0.00,,,0.00,Wunderground v.1.15,2013-08-16 17:56:00,
2013-08-16 11:01:00,79.9,65.7,29.85,West,269,2.0,3.0,62,0.00,,,0.00,Wunderground v.1.15,2013-08-16 18:01:00,
2013-08-16 11:06:00,79.9,65.2,29.84,WSW,242,2.0,4.0,61,0.00,,,0.00,Wunderground v.1.15,2013-08-16 18:06:00,
2013-08-16 11:11:00,79.7,65.1,29.84,WNW,284,4.0,8.0,61,0.00,,,0.00,Wunderground v.1.15,2013-08-16 18:11:00,
2013-08-16 11:16:00,80.2,64.6,29.84,NW,315,4.0,8.0,59,0.00,,,0.00,Wunderground v.1.15,2013-08-16 18:16:00,
2013-08-16 11:22:00,80.6,65.4,29.84,WNW,284,3.0,13.0,60,0.00,,,0.00,Wunderground v.1.15,2013-08-16 18:22:00,
2013-08-16 11:28:00,80.7,65.0,29.85,NW,309,4.0,13.0,59,0.00,,,0.00,Wunderground v.1.15,2013-08-16 18:28:00,
2013-08-16 11:33:00,80.6,65.4,29.85,SSW,213,4.0,8.0,60,0.00,,,0.00,Wunderground v.1.15,2013-08-16 18:33:00,
2013-08-16 11:38:00,80.8,66.6,29.85,WNW,286,3.0,9.0,62,0.00,,,0.00,Wunderground v.1.15,2013-08-16 18:38:00,
2013-08-16 11:43:00,81.5,66.3,29.84,West,263,3.0,7.0,60,0.00,,,0.00,Wunderground v.1.15,2013-08-16 18:43:00,
2013-08-16 11:49:00,81.7,65.5,29.84,WSW,241,4.0,8.0,58,0.00,,,0.00,Wunderground v.1.15,2013-08-16 18:49:00,
2013-08-16 11:54:00,81.8,66.1,29.84,West,268,5.0,9.0,59,0.00,,,0.00,Wunderground v.1.15,2013-08-16 18:54:00,
2013-08-16 11:59:00,81.9,67.1,29.84,West,276,4.0,9.0,61,0.00,,,0.00,Wunderground v.1.15,2013-08-16 18:59:00,
2013-08-16 12:04:00,82.1,65.4,29.84,WSW,258,4.0,6.0,57,0.00,,,0.00,Wunderground v.1.15,2013-08-16 19:04:00,
2013-08-16 12:10:00,82.4,66.1,29.84,WSW,250,4.0,4.0,58,0.00,,,0.00,Wunderground v.1.15,2013-08-16 19:10:00,
2013-08-16 12:15:00,82.5,66.2,29.84,WNW,288,4.0,6.0,58,0.00,,,0.00,Wunderground v.1.15,2013-08-16 19:15:00,
2013-08-16 12:20:00,81.9,65.7,29.84,WSW,257,5.0,8.0,58,0.00,,,0.00,Wunderground v.1.15,2013-08-16 19:20:00,
2013-08-16 12:25:00,81.8,66.1,29.84,NW,306,5.0,8.0,59,0.00,,,0.00,Wunderground v.1.15,2013-08-16 19:25:00,
2013-08-16 12:31:00,81.8,65.6,29.84,WNW,284,4.0,10.0,58,0.00,,,0.00,Wunderground v.1.15,2013-08-16 19:31:00,
2013-08-16 12:36:00,81.6,65.9,29.84,WSW,248,5.0,10.0,59,0.00,,,0.00,Wunderground v.1.15,2013-08-16 19:36:00,
2013-08-16 12:42:00,81.8,66.6,29.84,WSW,252,5.0,7.0,60,0.00,,,0.00,Wunderground v.1.15,2013-08-16 19:42:00,
2013-08-16 12:47:00,82.2,66.4,29.85,West,267,4.0,7.0,59,0.00,,,0.00,Wunderground v.1.15,2013-08-16 19:47:00,
2013-08-16 12:53:00,82.8,67.0,29.84,SW,236,3.0,4.0,59,0.00,,,0.00,Wunderground v.1.15,2013-08-16 19:53:00,
2013-08-16 12:58:00,82.8,66.0,29.84,West,272,3.0,9.0,57,0.00,,,0.00,Wunderground v.1.15,2013-08-16 19:58:00,
2013-08-16 13:03:00,82.3,66.0,29.84,WNW,294,4.0,5.0,58,0.00,,,0.00,Wunderground v.1.15,2013-08-16 20:03:00,
2013-08-16 13:08:00,81.5,65.8,29.84,WNW,300,4.0,7.0,59,0.00,,,0.00,Wunderground v.1.15,2013-08-16 20:08:00,
2013-08-16 13:13:00,81.4,67.1,29.84,WSW,246,4.0,6.0,62,0.00,,,0.00,Wunderground v.1.15,2013-08-16 20:13:00,
2013-08-16 13:18:00,81.1,65.4,29.84,SW,226,5.0,8.0,59,0.00,,,0.00,Wunderground v.1.15,2013-08-16 20:18:00,
2013-08-16 13:23:00,80.8,66.6,29.84,NW,314,6.0,6.0,62,0.00,,,0.00,Wunderground v.1.15,2013-08-16 20:23:00,
2013-08-16 13:28:00,81.0,66.3,29.84,NW,321,4.0,6.0,61,0.00,,,0.00,Wunderground v.1.15,2013-08-16 20:28:00,
2013-08-16 13:33:00,81.3,66.6,29.84,North,355,3.0,8.0,61,0.00,,,0.00,Wunderground v.1.15,2013-08-16 20:33:00,
2013-08-16 13:39:00,81.0,65.8,29.84,WSW,254,4.0,8.0,60,0.00,,,0.00,Wunderground v.1.15,2013-08-16 20:39:00,
2013-08-16 13:44:00,80.6,65.4,29.84,West,279,4.0,6.0,60,0.00,,,0.00,Wunderground v.1.15,2013-08-16 20:44:00,
2013-08-16 13:49:00,80.6,65.9,29.84,West,277,4.0,9.0,61,0.00,,,0.00,Wunderground v.1.15,2013-08-16 20:49:00,
2013-08-16 13:54:00,80.7,66.0,29.85,NW,313,4.0,6.0,61,0.00,,,0.00,Wunderground v.1.15,2013-08-16 20:54:00,
2013-08-16 13:59:00,81.1,65.9,29.85,West,269,3.0,7.0,60,0.00,,,0.00,Wunderground v.1.15,2013-08-16 20:59:00,
2013-08-16 14:04:00,80.9,66.2,29.85,WNW,295,4.0,8.0,61,0.00,,,0.00,Wunderground v.1.15,2013-08-16 21:04:00,
2013-08-16 14:10:00,80.9,65.7,29.85,WSW,241,5.0,7.0,60,0.00,,,0.00,Wunderground v.1.15,2013-08-16 21:10:00,
2013-08-16 14:15:00,80.7,65.0,29.85,WNW,284,4.0,7.0,59,0.00,,,0.00,Wunderground v.1.15,2013-08-16 21:15:00,
2013-08-16 14:21:00,80.4,65.7,29.84,West,280,4.0,5.0,61,0.00,,,0.00,Wunderground v.1.15,2013-08-16 21:21:00,
2013-08-16 14:26:00,80.2,65.5,29.85,NW,305,4.0,6.0,61,0.00,,,0.00,Wunderground v.1.15,2013-08-16 21:26:00,
2013-08-16 14:31:00,80.4,65.2,29.84,WSW,254,5.0,5.0,60,0.00,,,0.00,Wunderground v.1.15,2013-08-16 21:31:00,
2013-08-16 14:37:00,80.6,64.9,29.84,West,274,3.0,11.0,59,0.00,,,0.00,Wunderground v.1.15,2013-08-16 21:37:00,
2013-08-16 14:42:00,80.3,64.7,29.84,WNW,291,4.0,5.0,59,0.00,,,0.00,Wunderground v.1.15,2013-08-16 21:42:00,
2013-08-16 14:47:00,80.5,65.3,29.84,West,279,5.0,9.0,60,0.00,,,0.00,Wunderground v.1.15,2013-08-16 21:47:00,
2013-08-16 14:52:00,80.9,65.2,29.83,West,263,4.0,9.0,59,0.00,,,0.00,Wunderground v.1.15,2013-08-16 21:52:00,
2013-08-16 14:57:00,81.0,64.8,29.84,WSW,244,4.0,9.0,58,0.00,,,0.00,Wunderground v.1.15,2013-08-16 21:57:00,
2013-08-16 15:03:00,80.3,65.1,29.83,WSW,252,5.0,9.0,60,0.00,,,0.00,Wunderground v.1.15,2013-08-16 22:03:00,
2013-08-16 15:08:00,79.8,64.7,29.83,WNW,286,5.0,9.0,60,0.00,,,0.00,Wunderground v.1.15,2013-08-16 22:08:00,
2013-08-16 15:13:00,80.4,64.8,29.83,WSW,244,4.0,5.0,59,0.00,,,0.00,Wunderground v.1.15,2013-08-16 22:13:00,
2013-08-16 15:18:00,80.7,64.1,29.83,WNW,284,3.0,7.0,57,0.00,,,0.00,Wunderground v.1.15,2013-08-16 22:18:00,
2013-08-16 15:23:00,80.9,64.7,29.83,WNW,296,4.0,4.0,58,0.00,,,0.00,Wunderground v.1.15,2013-08-16 22:23:00,
2013-08-16 15:28:00,81.0,64.3,29.83,NW,305,4.0,6.0,57,0.00,,,0.00,Wunderground v.1.15,2013-08-16 22:28:00,
2013-08-16 15:33:00,81.1,64.4,29.83,WSW,258,2.0,3.0,57,0.00,,,0.00,Wunderground v.1.15,2013-08-16 22:33:00,
2013-08-16 15:38:00,81.2,63.5,29.83,West,277,3.0,7.0,55,0.00,,,0.00,Wunderground v.1.15,2013-08-16 22:38:00,
2013-08-16 15:43:00,81.3,64.1,29.82,WSW,237,3.0,4.0,56,0.00,,,0.00,Wunderground v.1.15,2013-08-16 22:43:00,
2013-08-16 15:50:00,81.4,64.2,29.82,West,270,2.0,2.0,56,0.00,,,0.00,Wunderground v.1.15,2013-08-16 22:50:00,
2013-08-16 15:55:00,81.5,63.8,29.82,WNW,288,2.0,10.0,55,0.00,,,0.00,Wunderground v.1.15,2013-08-16 22:55:00,
2013-08-16 16:00:00,81.7,64.0,29.82,West,265,3.0,3.0,55,0.00,,,0.00,Wunderground v.1.15,2013-08-16 23:00:00,
2013-08-16 16:06:00,81.2,64.0,29.82,WSW,240,3.0,6.0,56,0.00,,,0.00,Wunderground v.1.15,2013-08-16 23:06:00,
2013-08-16 16:11:00,81.1,63.4,29.82,West,281,4.0,7.0,55,0.00,,,0.00,Wunderground v.1.15,2013-08-16 23:11:00,
2013-08-16 16:16:00,81.0,63.8,29.82,West,271,4.0,7.0,56,0.00,,,0.00,Wunderground v.1.15,2013-08-16 23:16:00,
2013-08-16 16:21:00,81.2,64.0,29.82,WSW,254,3.0,7.0,56,0.00,,,0.00,Wunderground v.1.15,2013-08-16 23:21:00,
2013-08-16 16:26:00,80.9,63.2,29.82,WNW,286,4.0,7.0,55,0.00,,,0.00,Wunderground v.1.15,2013-08-16 23:26:00,
2013-08-16 16:32:00,80.9,63.7,29.82,WNW,299,4.0,7.0,56,0.00,,,0.00,Wunderground v.1.15,2013-08-16 23:32:00,
2013-08-16 16:37:00,81.1,62.3,29.81,WNW,293,3.0,7.0,53,0.00,,,0.00,Wunderground v.1.15,2013-08-16 23:37:00,
2013-08-16 16:42:00,81.0,63.3,29.81,WNW,289,3.0,8.0,55,0.00,,,0.00,Wunderground v.1.15,2013-08-16 23:42:00,
2013-08-16 16:47:00,80.8,63.1,29.81,West,267,3.0,8.0,55,0.00,,,0.00,Wunderground v.1.15,2013-08-16 23:47:00,
2013-08-16 16:52:00,80.6,62.9,29.81,SW,223,3.0,7.0,55,0.00,,,0.00,Wunderground v.1.15,2013-08-16 23:52:00,
2013-08-16 16:57:00,80.4,62.8,29.81,West,277,4.0,7.0,55,0.00,,,0.00,Wunderground v.1.15,2013-08-16 23:57:00,
2013-08-16 17:02:00,80.5,62.3,29.81,WNW,298,3.0,4.0,54,0.00,,,0.00,Wunderground v.1.15,2013-08-17 00:02:00,
2013-08-16 17:08:00,80.4,61.7,29.81,West,269,2.0,6.0,53,0.00,,,0.00,Wunderground v.1.15,2013-08-17 00:08:00,
2013-08-16 17:13:00,80.2,61.5,29.81,West,268,3.0,8.0,53,0.00,,,0.00,Wunderground v.1.15,2013-08-17 00:13:00,
2013-08-16 17:19:00,80.2,62.0,29.81,WNW,285,3.0,8.0,54,0.00,,,0.00,Wunderground v.1.15,2013-08-17 00:19:00,
2013-08-16 17:24:00,80.0,62.4,29.81,WNW,284,2.0,3.0,55,0.00,,,0.00,Wunderground v.1.15,2013-08-17 00:24:00,
2013-08-16 17:29:00,80.0,62.4,29.81,WSW,254,1.0,3.0,55,0.00,,,0.00,Wunderground v.1.15,2013-08-17 00:29:00,
2013-08-16 17:34:00,79.8,61.7,29.81,West,265,2.0,7.0,54,0.00,,,0.00,Wunderground v.1.15,2013-08-17 00:34:00,
2013-08-16 17:39:00,79.8,62.2,29.81,WSW,258,2.0,2.0,55,0.00,,,0.00,Wunderground v.1.15,2013-08-17 00:39:00,
2013-08-16 17:45:00,80.3,62.1,29.81,West,267,1.0,6.0,54,0.00,,,0.00,Wunderground v.1.15,2013-08-17 00:45:00,
2013-08-16 17:50:00,80.3,62.7,29.81,West,280,1.0,1.0,55,0.00,,,0.00,Wunderground v.1.15,2013-08-17 00:50:00,
2013-08-16 17:55:00,80.1,62.5,29.81,WNW,284,1.0,2.0,55,0.00,,,0.00,Wunderground v.1.15,2013-08-17 00:55:00,
2013-08-16 18:01:00,80.1,62.5,29.81,SW,234,1.0,6.0,55,0.00,,,0.00,Wunderground v.1.15,2013-08-17 01:01:00,
2013-08-16 18:06:00,79.6,62.5,29.81,WSW,243,2.0,6.0,56,0.00,,,0.00,Wunderground v.1.15,2013-08-17 01:06:00,
2013-08-16 18:11:00,79.3,62.7,29.81,WNW,284,2.0,7.0,57,0.00,,,0.00,Wunderground v.1.15,2013-08-17 01:11:00,
2013-08-16 18:16:00,78.6,62.6,29.81,West,279,2.0,7.0,58,0.00,,,0.00,Wunderground v.1.15,2013-08-17 01:16:00,
2013-08-16 18:21:00,77.9,62.4,29.81,NW,306,2.0,5.0,59,0.00,,,0.00,Wunderground v.1.15,2013-08-17 01:21:00,
2013-08-16 18:26:00,77.3,62.3,29.81,SSW,211,2.0,5.0,60,0.00,,,0.00,Wunderground v.1.15,2013-08-17 01:26:00,
2013-08-16 18:31:00,76.8,62.8,29.81,West,274,1.0,3.0,62,0.00,,,0.00,Wunderground v.1.15,2013-08-17 01:31:00,
2013-08-16 18:36:00,76.3,62.8,29.81,West,275,2.0,3.0,63,0.00,,,0.00,Wunderground v.1.15,2013-08-17 01:36:00,
2013-08-16 18:42:00,75.9,62.4,29.81,West,271,1.0,5.0,63,0.00,,,0.00,Wunderground v.1.15,2013-08-17 01:42:00,
2013-08-16 18:47:00,75.3,62.3,29.81,WNW,290,2.0,5.0,64,0.00,,,0.00,Wunderground v.1.15,2013-08-17 01:47:00,
2013-08-16 18:53:00,74.9,62.3,29.81,WNW,286,2.0,6.0,65,0.00,,,0.00,Wunderground v.1.15,2013-08-17 01:53:00,
2013-08-16 18:58:00,74.5,62.4,29.81,West,277,2.0,6.0,66,0.00,,,0.00,Wunderground v.1.15,2013-08-17 01:58:00,
2013-08-16 19:03:00,74.2,62.5,29.81,West,269,2.0,6.0,67,0.00,,,0.00,Wunderground v.1.15,2013-08-17 02:03:00,
2013-08-16 19:08:00,73.8,62.6,29.81,West,273,1.0,6.0,68,0.00,,,0.00,Wunderground v.1.15,2013-08-17 02:08:00,
2013-08-16 19:13:00,73.5,62.3,29.81,West,272,1.0,1.0,68,0.00,,,0.00,Wunderground v.1.15,2013-08-17 02:13:00,
2013-08-16 19:18:00,73.1,62.3,29.81,WSW,256,1.0,2.0,69,0.00,,,0.00,Wunderground v.1.15,2013-08-17 02:18:00,
2013-08-16 19:23:00,72.5,61.7,29.81,WSW,256,1.0,3.0,69,0.00,,,0.00,Wunderground v.1.15,2013-08-17 02:23:00,
2013-08-16 19:28:00,72.1,61.8,29.81,WSW,256,1.0,3.0,70,0.00,,,0.00,Wunderground v.1.15,2013-08-17 02:28:00,
2013-08-16 19:33:00,71.7,61.8,29.82,WSW,256,0.0,1.0,71,0.00,,,0.00,Wunderground v.1.15,2013-08-17 02:33:00,
2013-08-16 19:38:00,71.5,62.0,29.82,WSW,256,0.0,1.0,72,0.00,,,0.00,Wunderground v.1.15,2013-08-17 02:38:00,
2013-08-16 19:43:00,71.1,61.6,29.82,WSW,256,0.0,1.0,72,0.00,,,0.00,Wunderground v.1.15,2013-08-17 02:43:00,
2013-08-16 19:48:00,70.8,61.7,29.82,WSW,256,0.0,1.0,73,0.00,,,0.00,Wunderground v.1.15,2013-08-17 02:48:00,
2013-08-16 19:53:00,70.4,61.3,29.82,WSW,256,0.0,1.0,73,0.00,,,0.00,Wunderground v.1.15,2013-08-17 02:53:00,
2013-08-16 19:58:00,70.2,61.1,29.82,WSW,256,0.0,1.0,73,0.00,,,0.00,Wunderground v.1.15,2013-08-17 02:58:00,
2013-08-16 20:03:00,69.9,61.2,29.82,WSW,256,0.0,1.0,74,0.00,,,0.00,Wunderground v.1.15,2013-08-17 03:03:00,
2013-08-16 20:08:00,69.7,61.0,29.82,WSW,256,0.0,1.0,74,0.00,,,0.00,Wunderground v.1.15,2013-08-17 03:08:00,
2013-08-16 20:14:00,69.4,61.1,29.82,WSW,256,0.0,1.0,75,0.00,,,0.00,Wunderground v.1.15,2013-08-17 03:14:00,
2013-08-16 20:19:00,69.2,60.9,29.82,WSW,256,0.0,1.0,75,0.00,,,0.00,Wunderground v.1.15,2013-08-17 03:19:00,
2013-08-16 20:24:00,69.0,61.1,29.83,WSW,256,0.0,1.0,76,0.00,,,0.00,Wunderground v.1.15,2013-08-17 03:24:00,
2013-08-16 20:30:00,68.7,60.8,29.83,WSW,256,0.0,1.0,76,0.00,,,0.00,Wunderground v.1.15,2013-08-17 03:30:00,
2013-08-16 20:35:00,68.5,61.0,29.83,WSW,256,0.0,1.0,77,0.00,,,0.00,Wunderground v.1.15,2013-08-17 03:35:00,
2013-08-16 20:40:00,68.3,60.8,29.83,WSW,256,0.0,1.0,77,0.00,,,0.00,Wunderground v.1.15,2013-08-17 03:40:00,
2013-08-16 20:45:00,68.0,60.9,29.83,WSW,256,0.0,1.0,78,0.00,,,0.00,Wunderground v.1.15,2013-08-17 03:45:00,
2013-08-16 20:50:00,67.7,60.6,29.83,WSW,256,0.0,1.0,78,0.00,,,0.00,Wunderground v.1.15,2013-08-17 03:50:00,
2013-08-16 20:55:00,67.5,60.8,29.83,WSW,256,0.0,1.0,79,0.00,,,0.00,Wunderground v.1.15,2013-08-17 03:55:00,
2013-08-16 21:00:00,67.2,60.8,29.83,WSW,256,0.0,1.0,80,0.00,,,0.00,Wunderground v.1.15,2013-08-17 04:00:00,
2013-08-16 21:01:00,67.2,60.8,29.83,WSW,256,0.0,1.0,80,0.00,,,0.00,Wunderground v.1.15,2013-08-17 04:01:00,
2013-08-16 21:03:00,67.2,60.8,29.83,WSW,256,0.0,1.0,80,0.00,,,0.00,Wunderground v.1.15,2013-08-17 04:03:00,
2013-08-16 21:04:00,67.1,60.7,29.83,WSW,256,0.0,1.0,80,0.00,,,0.00,Wunderground v.1.15,2013-08-17 04:04:00,
2013-08-16 21:05:00,67.0,60.6,29.83,WSW,256,0.0,1.0,80,0.00,,,0.00,Wunderground v.1.15,2013-08-17 04:05:00,
2013-08-16 21:06:00,67.0,60.6,29.83,WSW,256,0.0,1.0,80,0.00,,,0.00,Wunderground v.1.15,2013-08-17 04:06:00,
2013-08-16 21:12:00,66.8,60.4,29.83,WSW,256,0.0,1.0,80,0.00,,,0.00,Wunderground v.1.15,2013-08-17 04:12:00,
2013-08-16 21:17:00,66.6,60.6,29.83,WSW,256,0.0,1.0,81,0.00,,,0.00,Wunderground v.1.15,2013-08-17 04:17:00,
2013-08-16 21:22:00,66.3,60.3,29.83,WSW,256,0.0,1.0,81,0.00,,,0.00,Wunderground v.1.15,2013-08-17 04:22:00,
2013-08-16 21:27:00,66.1,60.4,29.84,WSW,256,0.0,1.0,82,0.00,,,0.00,Wunderground v.1.15,2013-08-17 04:27:00,
2013-08-16 21:32:00,66.0,60.3,29.84,WSW,256,0.0,1.0,82,0.00,,,0.00,Wunderground v.1.15,2013-08-17 04:32:00,
2013-08-16 21:37:00,65.8,60.2,29.84,WSW,256,0.0,1.0,82,0.00,,,0.00,Wunderground v.1.15,2013-08-17 04:37:00,
2013-08-16 21:42:00,65.7,60.4,29.83,WSW,256,0.0,1.0,83,0.00,,,0.00,Wunderground v.1.15,2013-08-17 04:42:00,
2013-08-16 21:47:00,65.5,60.2,29.84,WSW,256,0.0,1.0,83,0.00,,,0.00,Wunderground v.1.15,2013-08-17 04:47:00,
2013-08-16 21:52:00,65.4,60.1,29.84,WSW,256,0.0,1.0,83,0.00,,,0.00,Wunderground v.1.15,2013-08-17 04:52:00,
2013-08-16 21:57:00,65.2,59.9,29.84,WSW,256,0.0,1.0,83,0.00,,,0.00,Wunderground v.1.15,2013-08-17 04:57:00,
2013-08-16 22:02:00,65.1,59.8,29.84,WSW,256,0.0,1.0,83,0.00,,,0.00,Wunderground v.1.15,2013-08-17 05:02:00,
2013-08-16 22:07:00,65.0,59.7,29.84,WSW,256,0.0,1.0,83,0.00,,,0.00,Wunderground v.1.15,2013-08-17 05:07:00,
2013-08-16 22:12:00,64.9,59.9,29.84,WSW,256,0.0,1.0,84,0.00,,,0.00,Wunderground v.1.15,2013-08-17 05:12:00,
2013-08-16 22:17:00,64.7,59.8,29.84,WSW,256,0.0,1.0,84,0.00,,,0.00,Wunderground v.1.15,2013-08-17 05:17:00,
2013-08-16 22:22:00,64.6,59.7,29.84,WSW,256,0.0,1.0,84,0.00,,,0.00,Wunderground v.1.15,2013-08-17 05:22:00,
2013-08-16 22:27:00,64.4,59.5,29.84,WSW,256,0.0,1.0,84,0.00,,,0.00,Wunderground v.1.15,2013-08-17 05:27:00,
2013-08-16 22:32:00,64.3,59.4,29.84,WSW,256,0.0,1.0,84,0.00,,,0.00,Wunderground v.1.15,2013-08-17 05:32:00,
2013-08-16 22:37:00,64.1,59.2,29.84,WSW,256,0.0,1.0,84,0.00,,,0.00,Wunderground v.1.15,2013-08-17 05:37:00,
2013-08-16 22:42:00,64.0,59.1,29.84,WSW,256,0.0,1.0,84,0.00,,,0.00,Wunderground v.1.15,2013-08-17 05:42:00,
2013-08-16 22:48:00,63.9,59.0,29.85,WSW,256,0.0,1.0,84,0.00,,,0.00,Wunderground v.1.15,2013-08-17 05:48:00,
2013-08-16 22:53:00,63.8,58.9,29.85,WSW,256,0.0,1.0,84,0.00,,,0.00,Wunderground v.1.15,2013-08-17 05:53:00,
2013-08-16 22:59:00,63.6,59.0,29.84,WSW,256,0.0,1.0,85,0.00,,,0.00,Wunderground v.1.15,2013-08-17 05:59:00,
2013-08-16 23:04:00,63.5,59.2,29.84,WSW,256,0.0,1.0,86,0.00,,,0.00,Wunderground v.1.15,2013-08-17 06:04:00,
2013-08-16 23:09:00,63.4,58.8,29.84,WSW,256,0.0,1.0,85,0.00,,,0.00,Wunderground v.1.15,2013-08-17 06:09:00,
2013-08-16 23:14:00,63.2,58.9,29.84,WSW,256,0.0,1.0,86,0.00,,,0.00,Wunderground v.1.15,2013-08-17 06:14:00,
2013-08-16 23:19:00,63.1,58.8,29.84,WSW,256,0.0,1.0,86,0.00,,,0.00,Wunderground v.1.15,2013-08-17 06:19:00,
2013-08-16 23:24:00,62.9,59.0,29.85,WSW,256,0.0,1.0,87,0.00,,,0.00,Wunderground v.1.15,2013-08-17 06:24:00,
2013-08-16 23:29:00,62.8,58.9,29.85,WSW,256,0.0,1.0,87,0.00,,,0.00,Wunderground v.1.15,2013-08-17 06:29:00,
2013-08-16 23:34:00,62.7,58.8,29.85,WSW,256,0.0,1.0,87,0.00,,,0.00,Wunderground v.1.15,2013-08-17 06:34:00,
2013-08-16 23:40:00,62.5,58.9,29.85,WSW,256,0.0,1.0,88,0.00,,,0.00,Wunderground v.1.15,2013-08-17 06:40:00,
2013-08-16 23:45:00,62.4,58.8,29.84,WSW,256,0.0,1.0,88,0.00,,,0.00,Wunderground v.1.15,2013-08-17 06:45:00,
2013-08-16 23:50:00,62.3,58.7,29.84,WSW,256,0.0,1.0,88,0.00,,,0.00,Wunderground v.1.15,2013-08-17 06:50:00,
2013-08-16 23:55:00,62.2,58.6,29.84,WSW,256,0.0,1.0,88,0.00,,,0.00,Wunderground v.1.15,2013-08-17 06:55:00,